Regional Weather Roundup
Issued by NWS

Home | Current Version | Previous Version | Graphics & Text | Print | Product List | Glossary On
Versions: 1 2 3 4 5 6 7 8 9 10 11 12 13 14 15 16 17 18 19 20 21 22 23 24 25 26 27 28 29 30 31 32 33 34 35 36 37 38 39 40 41 42 43 44 45 46 47 48 49 50
000
ASUS43 KFSD 291610
RWRSD

WEATHER ROUNDUP FOR SOUTH DAKOTA
NATIONAL WEATHER SERVICE SIOUX FALLS SD
1100 AM CDT THU SEP 29 2016

NOTE: "FAIR" INDICATES FEW OR NO CLOUDS BELOW 12,000 FEET WITH NO
SIGNIFICANT WEATHER AND/OR OBSTRUCTIONS TO VISIBILITY.


SDZ001>005-009-010-012>017-291700-
NORTHWEST AND NORTH CENTRAL SOUTH DAKOTA

CITY           SKY/WX    TMP DP  RH WIND       PRES   REMARKS
BUFFALO          N/A     63  41  44 SE20      30.21F
FAITH            N/A     59  45  59 SE18      30.31F
MOBRIDGE       SUNNY     61  46  57 S15       30.37F
$$

SDZ012>016-024>037-041>051-057-063-072>074-291700-
SOUTHWEST AND SOUTH CENTRAL SOUTH DAKOTA

CITY           SKY/WX    TMP DP  RH WIND       PRES   REMARKS
RAPID CTY ARPT SUNNY     61  41  47 SE14      30.31S
PIERRE         SUNNY     59  45  59 SE14      30.39F
CUSTER         SUNNY     65  42  43 VRB3G16   30.39S
ELLSWORTH AFB  SUNNY     62  39  43 S17       30.29F
PHILIP         SUNNY     61  44  53 SE9       30.34F
PINE RIDGE     SUNNY     67  43  41 S9        30.34S
WINNER         FAIR      63  46  54 S14       30.43S
$$

SDZ004>011-016>023-039-040-291700-
NORTHEAST SOUTH DAKOTA

CITY           SKY/WX    TMP DP  RH WIND       PRES   REMARKS
ABERDEEN       SUNNY     59  47  64 S8        30.47S
WATERTOWN      PTSUNNY   59  46  62 VRB5      30.48S
BROOKINGS      MOSUNNY   58  47  66 E6        30.48S
SISSETON         N/A     59  47  64 S8        30.48F
$$

SDZ017-020-022-023-036>040-048>070-291700-
SOUTHEAST SOUTH DAKOTA

CITY           SKY/WX    TMP DP  RH WIND       PRES   REMARKS
SIOUX FALLS    MOSUNNY   59  49  69 VRB3      30.48S
HURON          SUNNY     58  48  69 S10       30.47S
CHAMBERLAIN    SUNNY     61  50  66 S8        30.44S
MITCHELL       SUNNY     59  48  67 SE8       30.48S
YANKTON        SUNNY     57  50  77 CALM      30.46S
$$

ABBREVIATIONS USED IN REMARKS
   TC - TEMPERATURE IN CELSIUS
  WCI - WIND CHILL INDEX
   HX - HEAT INDEX
  VSB - VISIBILITY





USA.gov is the U.S. government's official web portal to all federal, state and local government web resources and services.